Regional Weather Roundup
Issued by NWS Green Bay, WI

Home | Current Version | Previous Version | Text Only | Print | Product List | Glossary On
Versions: 1 2 3 4 5 6 7 8 9 10 11 12 13 14 15 16 17 18 19 20 21 22 23 24 25 26 27 28 29 30 31 32 33 34 35 36 37 38 39 40 41 42 43 44 45 46 47 48 49 50
000
ASUS43 KGRB 211411
RWRGRB

NORTH-CENTRAL AND NORTHEAST WISCONSIN REGIONAL WEATHER ROUNDUP
NATIONAL WEATHER SERVICE GREEN BAY WI
900 AM CDT WED JUN 21 2017

WIZ005-009-010>012-018-019-211500-
NORTH CENTRAL WISCONSIN

CITY           SKY/WX    TMP DP  RH WIND       PRES   REMARKS
IRONWOOD       SUNNY     64  50  60 VRB3      29.96S
MANITOWISH WTR SUNNY     61  55  82 CALM      29.97S
ARBOR VITAE    SUNNY     62  52  71 CALM      29.96S
EAGLE RIVER    SUNNY     61  49  65 N3        29.96F
LAND O LAKES   SUNNY     62  50  65 CALM      29.99S
RHINELANDER    SUNNY     63  52  67 W5        29.98S
PHILLIPS       SUNNY     63  52  67 CALM      29.97S
ANTIGO         SUNNY     62  55  78 CALM      29.98S
TOMAHAWK       NOT AVBL
MERRILL        SUNNY     61  55  79 CALM      29.98R
$$

WIZ013-073-211500-
NORTHEAST WISCONSIN

CITY           SKY/WX    TMP DP  RH WIND       PRES   REMARKS
IRON MOUNTAIN  SUNNY     62  50  64 VRB3      29.95S
MARINETTE      SUNNY     65  54  67 N5        29.97S
OCONTO         SUNNY     65  55  69 CALM      29.95F
$$

WIZ017-030-035>037-045-211500-
CENTRAL WISCONSIN

CITY           SKY/WX    TMP DP  RH WIND       PRES   REMARKS
MEDFORD        SUNNY     63  53  69 SE6       29.97R
WAUSAU           N/A     63  53  70 MISG      29.96R
MOSINEE        MOSUNNY   64  54  68 CALM      29.98S
MARSHFIELD     SUNNY     66  54  65 SE3       29.95F
WISC RAPIDS    SUNNY     67  56  67 SW3       29.97F
STEVENS POINT  SUNNY     65  52  62 SE3       29.98R
WAUPACA        SUNNY     68  56  64 CALM      29.97S
SHAWANO        SUNNY     65  52  62 CALM      29.96S
CLINTONVILLE   SUNNY     64  50  59 CALM      29.96F
WAUTOMA        MOSUNNY   65  58  78 SE5       29.97S
$$

WIZ038-039-048-051-211500-
FOX VALLEY

CITY           SKY/WX    TMP DP  RH WIND       PRES   REMARKS
NWS GREEN BAY  SUNNY     69  58  67 CALM      29.96F
APPLETON       MOSUNNY   66  50  55 CALM      29.96S
OSHKOSH        SUNNY     67  57  70 VRB3      29.96S
FOND DU LAC    SUNNY     67  57  70 S6        29.97S
$$

WIZ022-050-052-211500-
EAST CENTRAL WISCONSIN

CITY           SKY/WX    TMP DP  RH WIND       PRES   REMARKS
EPHRAIM        FAIR      64  54  69 N6        29.96S
WASHINGTON ISL FAIR      64  56  76 CALM      29.96S
STURGEON BAY     N/A     66  56  70 NW5         N/A
MANITOWOC      SUNNY     69  54  58 CALM      29.97F
SHEBOYGAN      SUNNY     68  60  75 CALM      29.96F
$$

LMZ563-521-522-541>543-211500-
LAKESHORE

STATION/POSITION TIME  TEMP    WIND        PRES    VSBY  WAVE
                       AIR SEA DIR/SP/G                  HT/PER
                 (UTC) (F)     (DEG/KT/KT) (MB)    (MI)  (FT/S)
SHEBOYGAN LKSHOR 1400   56     170/  5/  6 1014.5F
KEWAUNEE LKSHORE 1348   64      80/  2/  3 1014.1F
NORTHPORT PIER   1340   62     350/  4/  5 1014.6R
N MID LAKE BUOY  1350   56 55  150/  2/  4 1015.5S         1
CHAMBERS ISLAND  1340   71     340/  2/  2 1014.6R
MENOMINEE LKSHOR 1348           40/  4/  4 1013.9R
$$




USA.gov is the U.S. government's official web portal to all federal, state and local government web resources and services.